Location: Valdosta
(30.8330°N, 83.2790°W)
Time: 16:46:29
(UTC-04:00)

Daily predictions for brighter satellites

Satellite Brightness Start Highest point End
(mag) Time Altitude Azimuth Time Altitude Azimuth Time Altitude Azimuth
METEOR-M 4.1 20:02:54 10° SSE 20:08:10 69° ENE 20:13:29 10° N
Cosmos 1125 Rocket 4.3 20:06:54 10° SSE 20:11:15 28° E 20:15:39 10° NE
Resurs 01 Rocket 2.9 20:08:57 10° ESE 20:12:16 21° ENE 20:15:36 10° NNE
COSMOS 2406 3.3 20:06:51 10° NNW 20:12:36 90° SSW 20:18:17 10° SSE
Cosmos 1766 3.3 20:09:29 10° S 20:13:14 52° E 20:17:01 10° NNE
Delta 168 3.9 20:10:17 10° WSW 20:14:11 30° S 20:17:14 10° ESE
Meteor 2-5 Rocket 3.9 20:09:23 10° N 20:15:11 88° E 20:21:04 10° S
Cosmos 1605 Rocket 4.3 20:11:25 10° SSE 20:17:16 44° E 20:23:13 10° NNE
HJ-1C 3.9 20:23:31 10° SE 20:26:41 39° ENE 20:29:53 10° N
SeaSat 1 2.9 20:22:28 10° SE 20:27:02 40° ENE 20:31:37 10° N
Cosmos 2123 Rocket 4.0 20:31:03 10° N 20:37:17 61° E 20:43:27 10° SSE
Cosmos 2344 4.5 20:31:08 10° SW 20:38:38 54° NW 20:46:39 10° NNE
SL-27 R/B 2.4 20:35:46 10° N 20:39:20 70° ENE 20:42:57 10° SSE
CZ-2D R/B 4.1 20:37:54 12° SE 20:40:55 30° ENE 20:44:19 10° NNE
RESURS DK-1 2.3 20:37:12 10° NNW 20:41:18 64° ENE 20:45:23 10° SSE
CZ-3C R/B 3.6 20:37:22 10° WSW 20:42:39 15° SW 20:45:24 10° S
Cosmos 1805 3.1 20:41:22 10° S 20:45:13 67° E 20:49:06 10° NNE
Meteor 1-29 4.2 20:46:07 10° NE 20:48:18 22° E 20:48:18 22° E
GPS 2-05 Rocket1 3.2 20:45:29 10° W 20:49:01 62° NNW 20:51:22 20° ENE
In-Cosmos 22 4.0 20:43:54 10° N 20:49:09 62° E 20:54:21 10° SSE
ALOS 2.4 20:45:24 10° S 20:50:04 80° WSW 20:54:45 10° NNW
Cosmos 1818 4.4 20:47:29 10° N 20:52:19 32° ENE 20:54:41 22° E
Resurs 1-3 3.7 20:48:16 10° SSE 20:52:31 53° ENE 20:56:47 10° N
COSMOS 2487 4.4 20:51:47 10° NNE 20:53:16 15° NE 20:53:16 15° NE
Meteor 1-4 Rocket 2.3 20:53:10 10° S 20:56:38 78° E 21:00:06 10° N
Yuri Rocket 3.3 20:53:34 10° W 20:57:47 51° S 20:59:42 27° SE
OAO 2 Rocket 4.1 20:53:43 10° SW 20:58:23 34° SSE 21:00:17 26° ESE
FENGYUN 3A 3.9 20:54:07 10° S 20:59:30 72° WSW 21:04:54 10° NNW
Cosmos 1470 3.4 21:00:37 31° ESE 21:01:16 33° E 21:04:52 10° NNE
Cosmos 1833 Rocket 3.6 20:59:39 10° N 21:04:28 28° ENE 21:05:39 26° E
Cosmos 2278 Rocket 3.9 20:59:32 10° SW 21:04:40 35° WNW 21:09:49 10° N
Cosmos 1544 3.6 21:01:28 10° SSW 21:05:02 59° W 21:08:39 10° N
Cosmos 1408 Rocket 4.1 21:03:11 10° NNE 21:07:19 36° E 21:07:46 35° E
Cosmos 372 Rocket 3.8 21:03:42 10° SSW 21:08:46 82° ESE 21:13:55 10° NNE
Cosmos 2098 Rocket 4.3 21:03:00 10° S 21:09:56 85° E 21:17:34 10° N
Cosmos 1733 3.8 21:10:59 37° ENE 21:10:59 37° ENE 21:13:57 10° NNE
Cosmos 1459 Rocket 4.2 21:04:58 10° SSE 21:10:56 47° E 21:16:49 10° NNE
Delta 128 3.6 21:09:29 10° WSW 21:13:56 61° S 21:15:07 43° ESE
Cosmos 1447 Rocket 4.4 21:09:15 10° N 21:15:21 69° E 21:21:28 10° SSE
ATLAS 5 CENTAUR R/B 1.7 21:11:25 10° SSW 21:16:00 83° WNW 21:20:54 10° NNE
Cosmos 2173 Rocket 4.1 21:10:48 10° SSE 21:16:41 51° E 21:22:41 10° NNE
ISS -3.0 21:14:00 10° WSW 21:17:09 49° NW 21:18:26 30° NNE
H-2A R/B 3.7 21:15:55 10° S 21:19:38 48° W 21:23:27 10° NNW
Cosmos 2297 4.2 21:14:49 10° SSW 21:20:25 60° WNW 21:26:06 10° NNE
USA 215 3.1 21:14:05 10° NE 21:20:38 82° SE 21:27:09 10° SW
H-II Stage 2 2.0 21:19:06 10° W 21:20:30 38° WSW 21:20:30 38° WSW
Cosmos 158 Rocket 4.3 21:17:24 10° N 21:22:19 43° ENE 21:22:45 42° E
Okean 3 Rocket 4.2 21:18:54 10° NNW 21:23:12 56° W 21:27:31 10° S
Spot 2 Rocket 4.0 21:19:54 10° S 21:24:55 60° WSW 21:29:59 10° NNW
Tiangong 1 2.0 21:23:47 10° WNW 21:25:54 43° WNW 21:25:54 43° WNW
Aurora 2 Rocket 3.5 21:20:20 10° WSW 21:26:59 45° S 21:28:04 40° SSE
Helios 1B rocket 3.1 21:31:17 10° N 21:35:19 54° WNW 21:39:19 10° SSW
Cosmos 1076 Rocket 3.8 21:32:16 10° NNW 21:36:27 62° W 21:38:07 34° SSW
Cosmos 1953 4.2 21:34:18 10° SW 21:37:55 31° W 21:41:32 10° NNW
Cosmos 2082 Rocket 2.1 21:34:49 10° NNW 21:40:29 69° ENE 21:41:10 62° ESE
Meteor 2-17 Rocket 4.4 21:40:14 52° SE 21:41:11 58° E 21:47:12 10° NNE
GP-B 3.5 21:40:04 24° SSW 21:42:37 61° W 21:47:00 10° N
Envisat 2.8 21:42:59 70° ENE 21:42:59 70° ENE 21:48:03 10° N
Cosmos 1939 Rocket 4.4 21:45:32 28° N 21:45:32 28° N 21:47:40 10° N
Helios 1A 3.2 21:43:23 61° SW 21:43:45 65° WSW 21:47:54 10° NNW
OAO 1 4.4 21:38:48 10° WNW 21:44:19 80° NNE 21:44:49 72° ENE
Cosmos 1271 Rocket 3.5 21:45:01 31° SW 21:46:37 52° W 21:50:33 10° N
Cosmos 2016 Rocket 3.8 21:47:02 53° SSE 21:48:24 69° E 21:54:32 10° NNE
Delta 2 Rocket 4.1 21:44:02 10° WNW 21:47:57 47° SW 21:47:57 47° SW
Resurs 01 Rocket 3.7 21:44:56 10° SSW 21:48:33 25° W 21:52:12 10° NW
Cosmos 1766 Rocket 4.0 21:47:52 10° NNW 21:52:17 59° W 21:52:36 58° WSW
Gblst 52 Del rocket 4.1 21:50:45 10° SW 21:56:47 82° SSE 21:56:47 82° SSE
Cosmos-2242 4.3 21:53:03 10° SSW 21:57:00 38° W 22:00:58 10° NNW
ERS-1 Rocket 4.3 22:03:22 29° NNE 22:03:22 29° NNE 22:05:54 10° N
Cosmos 1048 Rocket 4.3 21:57:08 10° NNW 22:02:09 59° WSW 22:02:27 57° WSW
Lacrosse 5 rocket 4.0 22:02:08 10° N 22:02:25 11° N 22:02:25 11° N
SL-08 R/B 4.5 22:10:08 77° NNE 22:10:08 77° NNE 22:16:03 10° N
Cosmos 1833 Rocket 4.4 22:43:27 10° NW 22:47:24 28° W 22:47:24 28° W
